{"data":{"norad_id":59776,"intl_designator":"2024-092D","name":"2024-092D","alt_names":[],"object_type":"PAYLOAD","status":"ACTIVE","operator":null,"country":"CIS","launch_date":"2024-05-16","launch_site_code":"PLMSC","launch_vehicle":null,"mission":null,"orbit_class":"UNKNOWN","rcs_meters":null,"size_class":null,"mass_kg":null,"dimensions":null,"purposes":[],"wikipedia_slug":null,"has_3d_model":false,"image_url":null,"decayed_at":null,"tle_current":{"epoch":"2026-05-25T02:30:22.346784Z","epoch_age_seconds":62059,"freshness":"FRESH","line1":"1 59776U 24092D   26145.10442531  .00018246  00000+0  52195-3 0  9994","line2":"2 59776  97.6541 277.2472 0006815 223.5436 136.5270 15.36000209112200","mean_motion":15.36000209,"eccentricity":0.0006815,"inclination_deg":97.6541,"raan_deg":277.2472,"arg_perigee_deg":223.5436,"mean_anomaly_deg":136.527,"bstar":0.00052195,"rev_number":11220,"period_min":93.749987243654,"perigee_km":453.29241734082,"apogee_km":462.61000557304,"semimajor_km":6836.0882114569,"source":"CELESTRAK","updated_at":"2026-05-25T13:38:01.674095Z"}}}